CW5574 Weather Reports


time (UTC)temp
F
wind
direction
speed
knots
gust
knots
rain 1hr
in
rain 24hr
in
rain mn
in
humidity
%
barometer
mb
20260506204619 62 32 0.9 2.6 0.00 0.28 0.28 99 1006.1
20260506204115 62 75 0.9 6.1 0.00 0.28 0.28 99 1006.3
20260506203614 62 11 0.0 2.6 0.00 0.28 0.28 99 1006.1
20260506203110 63 123 1.7 2.6 0.00 0.28 0.28 99 1006.0
20260506202608 63 125 2.6 3.5 0.00 0.28 0.28 99 1006.0
20260506202104 63 122 1.7 2.6 0.00 0.28 0.28 99 1006.0
20260506201601 63 40 0.9 2.6 0.00 0.28 0.28 99 1006.0
20260506201058 63 21 0.0 5.2 0.00 0.28 0.28 99 1006.1
20260506200554 63 52 0.0 1.7 0.00 0.28 0.28 99 1006.0
20260506200051 63 170 1.7 3.5 0.00 0.28 0.28 99 1006.2
20260506195547 62 30 0.0 0.0 0.00 0.28 0.28 99 1006.2
20260506195044 62 43 0.9 0.9 0.00 0.28 0.28 99 1006.4
20260506194542 62 164 2.6 3.5 0.00 0.28 0.28 99 1006.5
20260506194038 62 54 0.9 1.7 0.00 0.28 0.28 99 1006.4
20260506193536 62 86 1.7 5.2 0.00 0.28 0.28 99 1006.5
20260506193032 62 74 1.7 3.5 0.00 0.28 0.28 99 1006.5
20260506192529 62 357 0.0 2.6 0.00 0.28 0.28 99 1006.4
20260506192025 62 40 0.9 2.6 0.00 0.28 0.28 99 1006.7
20260506191522 62 81 0.9 2.6 0.00 0.28 0.28 99 1006.5
20260506191018 62 151 1.7 3.5 0.00 0.28 0.28 99 1006.5
20260506190515 62 235 1.7 3.5 0.05 0.28 0.28 99 1006.6
20260506190012 62 328 0.0 0.9 0.05 0.28 0.28 99 1006.4
20260506185510 62 42 0.9 2.6 0.00 0.27 0.27 99 1006.5
20260506185006 62 168 3.5 7.0 0.00 0.27 0.27 99 1006.7
20260506184503 62 109 1.7 3.5 0.07 0.27 0.27 99 1006.7
20260506184000 62 129 1.7 2.6 0.07 0.27 0.27 99 1006.6
20260506183456 62 206 0.9 3.5 0.00 0.26 0.26 99 1006.8
20260506182953 62 211 1.7 3.5 0.00 0.26 0.26 99 1006.8
20260506182450 62 25 0.9 0.9 0.00 0.26 0.26 99 1006.6
20260506181947 61 195 1.7 5.2 0.05 0.26 0.26 99 1006.6
20260506181445 61 306 0.9 2.6 0.05 0.26 0.26 99 1006.8
20260506180941 61 104 2.6 7.0 0.07 0.25 0.25 99 1006.9
20260506180437 61 203 0.9 2.6 0.07 0.25 0.25 99 1006.8
20260506175929 61 181 1.7 2.6 0.07 0.24 0.24 99 1007.0
20260506175426 61 71 0.0 0.0 0.00 0.23 0.23 99 1007.0
20260506174923 61 353 0.9 1.7 0.00 0.23 0.23 99 1007.0
20260506174421 61 190 0.9 3.5 0.00 0.23 0.23 99 1007.0
20260506173917 61 155 1.7 5.2 0.05 0.23 0.23 99 1006.9
20260506173414 61 74 1.7 2.6 0.05 0.23 0.23 99 1006.9
20260506172911 61 13 1.7 6.1 0.00 0.22 0.22 99 1007.0
20260506172408 61 142 2.6 5.2 0.00 0.22 0.22 99 1006.9
20260506171905 61 184 3.5 7.8 0.07 0.22 0.22 99 1006.9
20260506171402 61 123 1.7 6.1 0.00 0.21 0.21 99 1007.0
20260506170900 61 21 0.0 1.7 0.05 0.21 0.21 99 1007.0
20260506170355 60 68 1.7 2.6 0.00 0.20 0.20 99 1007.1
20260506165849 60 168 1.7 5.2 0.00 0.20 0.20 99 1007.2
20260506165347 60 177 1.7 6.1 0.07 0.20 0.20 99 1007.3
20260506164843 60 11 0.0 2.6 0.12 0.20 0.20 99 1007.5
20260506164339 59 301 1.7 2.6 0.05 0.19 0.19 99 1007.5
20260506163838 58 16 0.0 1.7 0.07 0.18 0.18 99 1007.5
20260506163332 58 32 0.0 0.9 0.07 0.18 0.18 99 1007.6
20260506162827 58 10 0.0 0.0 0.00 0.17 0.17 99 1007.8
20260506162325 57 27 0.0 0.0 0.05 0.17 0.17 99 1007.7
20260506161823 57 14 0.0 0.0 0.12 0.17 0.17 99 1007.8
20260506161319 57 40 0.0 0.0 0.12 0.16 0.16 99 1007.9
20260506160812 56 43 0.0 0.0 0.05 0.15 0.15 99 1007.9
20260506160308 56 44 0.0 0.0 0.07 0.14 0.14 99 1008.0
20260506155807 56 31 0.0 0.9 0.05 0.13 0.13 99 1008.0
20260506155306 56 28 0.0 0.0 0.12 0.13 0.13 99 1008.3
20260506153416 57 7 0.0 0.0 0.12 0.10 0.10 99 1008.6
20260506152913 56 5 0.0 0.0 0.07 0.09 0.09 99 1008.6
20260506152410 56 12 0.0 0.0 0.00 0.08 0.08 98 1008.5
20260506151909 56 10 0.0 0.0 0.05 0.08 0.08 98 1008.5
20260506151405 56 11 0.0 0.0 0.00 0.07 0.07 98 1008.5
20260506150903 56 1 0.0 0.0 0.07 0.07 0.07 98 1008.5
20260506150359 56 0 0.0 0.0 0.07 0.07 0.07 98 1008.6
20260506145856 56 0 0.0 0.0 0.05 0.06 0.06 98 1008.9
20260506145352 56 359 0.0 0.0 0.05 0.06 0.06 98 1008.9
20260506144850 56 359 0.0 0.0 0.07 0.05 0.05 98 1009.0
20260506144346 56 359 0.0 0.0 0.07 0.05 0.05 97 1009.1
20260506143844 55 358 0.0 0.0 0.05 0.04 0.04 97 1009.0
20260506143341 56 358 0.0 0.0 0.12 0.04 0.04 97 1009.2
20260506142839 56 358 0.0 0.0 0.12 0.03 0.03 97 1009.4
20260506142337 56 358 0.0 0.0 0.05 0.02 0.02 97 1009.2
20260506141835 56 358 0.0 0.0 0.07 0.01 0.01 96 1009.3
20260506141333 56 356 0.0 0.0 0.07 0.01 0.01 96 1009.4
20260506140831 57 358 0.0 0.0 0.00 0.00 0.00 95 1009.4
20260506140327 57 358 0.0 0.0 0.00 0.00 0.00 95 1009.2
20260506135824 56 357 0.0 0.0 0.00 0.00 0.00 94 1009.2
20260506135321 56 358 0.0 0.0 0.00 0.00 0.00 94 1009.2
20260506134817 56 358 0.0 0.0 0.00 0.00 0.00 94 1009.3
20260506134314 56 358 0.0 0.0 0.00 0.00 0.00 94 1009.1
20260506133811 56 356 0.0 0.0 0.00 0.00 0.00 95 1009.0
20260506133308 57 351 0.0 0.0 0.00 0.00 0.00 95 1009.1
20260506132804 56 10 0.0 0.0 0.00 0.00 0.00 94 1009.3
20260506132302 56 11 0.0 0.0 0.00 0.00 0.00 93 1009.0
20260506131800 56 11 0.0 0.0 0.00 0.00 0.00 93 1008.9
20260506131255 56 1 0.0 0.0 0.00 0.00 0.00 93 1008.8
20260506130752 56 26 0.0 0.0 0.00 0.00 0.00 93 1008.9
20260506130249 56 11 0.0 0.0 0.00 0.00 0.00 94 1009.1
20260506125747 56 11 0.0 0.0 0.00 0.00 0.00 94 1009.1
20260506125245 56 12 0.0 0.0 0.00 0.00 0.00 94 1009.0
20260506124743 56 11 0.0 0.0 0.00 0.00 0.00 95 1009.0
20260506124240 55 9 0.0 0.0 0.00 0.00 0.00 95 1009.1
20260506123737 55 15 0.9 0.9 0.00 0.00 0.00 95 1009.2
20260506123237 55 358 0.0 0.9 0.00 0.00 0.00 96 1009.2
20260506122732 55 340 0.0 0.9 0.00 0.00 0.00 96 1009.5
20260506122230 55 353 1.7 3.5 0.00 0.00 0.00 97 1009.5
20260506121728 55 350 0.0 0.0 0.00 0.00 0.00 98 1009.9
20260506121225 54 343 1.7 1.7 0.00 0.00 0.00 98 1010.1
20260506120722 55 354 0.0 0.9 0.00 0.00 0.00 99 1010.0
20260506120219 54 334 0.0 2.6 0.00 0.00 0.00 99 1009.7
20260506115717 54 349 0.0 0.0 0.00 0.00 0.00 99 1009.7
20260506115215 54 339 2.6 3.5 0.00 0.00 0.00 99 1009.7
20260506114713 54 359 0.0 0.9 0.00 0.00 0.00 99 1009.7
20260506114210 54 2 0.0 0.0 0.00 0.00 0.00 99 1009.6
20260506113708 54 2 0.0 0.0 0.00 0.00 0.00 99 1009.5
20260506113205 53 1 0.0 0.9 0.00 0.00 0.00 99 1009.2
20260506112701 53 13 0.0 0.0 0.00 0.00 0.00 99 1009.4
20260506112159 53 13 0.0 0.0 0.00 0.00 0.00 99 1009.2
20260506111657 53 9 0.0 0.0 0.00 0.00 0.00 99 1009.0
20260506111154 53 8 0.0 0.0 0.00 0.00 0.00 99 1009.6
20260506110651 53 9 0.0 0.0 0.00 0.00 0.00 99 1009.3
20260506110149 53 9 0.0 0.0 0.00 0.00 0.00 99 1009.1
20260506105645 53 10 0.0 0.9 0.00 0.00 0.00 99 1008.9
20260506105142 53 356 1.7 1.7 0.00 0.00 0.00 99 1009.0
20260506104641 53 8 0.0 0.0 0.00 0.00 0.00 99 1009.5
20260506104138 53 8 0.0 0.0 0.00 0.00 0.00 99 1009.0
20260506103635 52 8 0.0 0.0 0.00 0.00 0.00 99 1009.2
20260506103132 52 5 0.0 0.0 0.00 0.00 0.00 99 1009.3
20260506102630 52 11 0.0 0.0 0.00 0.00 0.00 99 1009.2
20260506102127 52 11 0.0 0.0 0.00 0.00 0.00 99 1009.2
20260506101623 52 11 0.0 0.0 0.00 0.00 0.00 99 1008.8
20260506101120 52 10 0.0 0.0 0.00 0.00 0.00 99 1009.0
20260506100619 52 11 0.0 0.0 0.00 0.00 0.00 99 1008.9
20260506100116 52 10 0.0 0.0 0.00 0.00 0.00 99 1009.0
20260506095615 52 10 0.0 0.0 0.00 0.00 0.00 99 1009.0
20260506095111 52 11 0.0 0.0 0.00 0.00 0.00 99 1008.9
20260506094609 52 11 0.0 0.0 0.00 0.00 0.00 99 1009.2
20260506094106 52 10 0.0 0.0 0.00 0.00 0.00 99 1009.1
20260506093605 52 10 0.0 0.0 0.00 0.00 0.00 99 1009.0
20260506093102 52 10 0.0 0.0 0.00 0.00 0.00 99 1009.0
20260506092559 52 10 0.0 0.0 0.00 0.00 0.00 99 1008.7
20260506092056 52 10 0.0 0.0 0.00 0.00 0.00 99 1008.7
20260506091554 51 10 0.0 0.0 0.00 0.00 0.00 99 1008.6
20260506091052 52 10 0.0 0.0 0.00 0.00 0.00 99 1008.9
20260506090549 52 10 0.0 0.0 0.00 0.00 0.00 99 1009.0
20260506090045 52 10 0.0 0.0 0.00 0.00 0.00 99 1009.0
20260506085542 52 10 0.0 0.0 0.00 0.00 0.00 99 1009.0
20260506085038 52 10 0.0 0.0 0.00 0.00 0.00 99 1008.9
20260506084536 53 10 0.0 0.0 0.00 0.00 0.00 99 1009.1
20260506084032 52 10 0.0 0.0 0.00 0.00 0.00 99 1009.3
20260506083529 53 10 0.0 0.0 0.00 0.00 0.00 99 1009.4
20260506083026 52 10 0.0 0.0 0.00 0.00 0.00 99 1009.3
20260506082523 53 10 0.0 0.0 0.00 0.00 0.00 99 1009.5
20260506082019 53 10 0.0 0.0 0.00 0.00 0.00 98 1009.5
20260506081517 53 10 0.0 0.9 0.00 0.00 0.00 98 1009.4
20260506081014 53 10 0.0 0.0 0.00 0.00 0.00 98 1009.7
20260506080512 53 10 0.0 0.0 0.00 0.00 0.00 98 1009.4
20260506073455 54 11 0.0 0.0 0.00 0.00 0.00 97 1009.9
20260506072952 54 10 0.0 0.0 0.00 0.00 0.00 97 1009.8
20260506072449 54 10 0.0 0.0 0.00 0.00 0.00 97 1010.1
20260506071947 54 11 0.0 0.0 0.00 0.00 0.00 97 1010.0
20260506071445 54 11 0.0 0.0 0.00 0.00 0.00 97 1010.0
20260506070942 54 11 0.0 0.0 0.00 0.00 0.00 96 1010.0
20260506070439 55 11 0.0 0.0 0.00 0.00 0.00 96 1010.0
20260506062416 55 359 0.0 0.0 0.00 0.00 0.00 94 1010.5
20260506061912 56 358 0.0 0.0 0.00 0.00 0.00 94 1010.5
20260506061409 56 359 0.0 0.0 0.00 0.00 0.00 92 1010.3
20260506060907 56 359 0.0 0.0 0.00 0.00 0.00 91 1010.5
20260506060404 56 359 0.0 0.0 0.00 0.00 0.00 90 1010.5
20260506051336 59 359 0.9 2.6 0.00 0.00 0.00 84 1010.8
20260506050834 58 330 2.6 3.5 0.00 0.00 0.00 85 1010.4
20260506050331 59 329 1.7 3.5 0.00 0.00 0.00 83 1010.5
20260506044822 59 355 0.9 1.7 0.00 0.00 0.00 84 1010.6
20260506044320 59 356 0.0 2.6 0.00 0.00 0.00 84 1010.5
20260506043816 59 4 1.7 3.5 0.00 0.00 0.00 85 1010.7
20260506043314 59 356 0.9 2.6 0.00 0.00 0.00 85 1010.5
20260506042812 59 352 3.5 7.0 0.00 0.00 0.00 85 1010.5
20260506042311 59 1 1.7 5.2 0.00 0.00 0.00 86 1010.5
20260506041809 59 344 5.2 7.0 0.00 0.00 0.00 88 1010.5
20260506041305 59 338 1.7 5.2 0.00 0.00 0.00 88 1010.4
20260506040803 59 326 3.5 6.1 0.00 0.00 0.00 88 1010.5
20260506040300 59 312 4.3 5.2 0.00 0.00 0.00 90 1010.4
20260506035756 59 334 4.3 7.0 0.00 0.08 0.08 93 1010.0
20260506035253 60 311 3.5 3.5 0.00 0.08 0.08 96 1010.0
20260506034750 60 347 1.7 5.2 0.00 0.08 0.08 98 1010.0
20260506034248 60 334 3.5 3.5 0.00 0.08 0.08 99 1010.2
20260506033744 60 343 0.9 5.2 0.00 0.08 0.08 99 1010.0
20260506033242 60 8 1.7 2.6 0.00 0.08 0.08 99 1009.8
20260506032738 60 35 0.0 0.0 0.00 0.08 0.08 99 1010.0
20260506032235 60 37 0.0 0.0 0.00 0.08 0.08 99 1009.5
20260506031732 60 17 0.9 1.7 0.00 0.08 0.08 99 1009.5
20260506031229 60 3 1.7 1.7 0.00 0.08 0.08 99 1009.3
20260506030728 60 345 1.7 1.7 0.00 0.08 0.08 99 1009.5
20260506030225 61 41 0.0 0.0 0.00 0.08 0.08 99 1009.4
20260506025722 61 42 0.9 1.7 0.05 0.08 0.08 99 1009.4
20260506025218 60 18 0.0 0.0 0.12 0.08 0.08 99 1009.7
20260506024715 60 359 0.0 0.0 0.07 0.07 0.07 99 1009.9
20260506024211 61 6 0.0 0.0 0.00 0.06 0.06 98 1010.2
20260506023708 61 21 0.0 0.0 0.00 0.06 0.06 98 1009.5
20260506023205 61 21 0.0 0.0 0.07 0.06 0.06 98 1009.3
20260506022702 61 21 0.0 0.0 0.19 0.06 0.06 97 1009.1
20260506022200 61 24 0.0 0.0 0.17 0.05 0.05 97 1009.3
20260506021657 61 14 0.0 0.0 0.07 0.02 0.02 97 1009.6
20260506021154 61 14 0.0 0.0 0.07 0.02 0.02 96 1009.4
20260506020651 61 20 0.0 0.0 0.00 0.01 0.01 95 1009.4
20260506020149 61 20 0.0 0.0 0.00 0.01 0.01 95 1009.2
20260506015646 61 20 0.0 0.0 0.00 0.01 0.01 94 1009.3
20260506015143 62 20 0.0 0.0 0.00 0.01 0.01 94 1009.2
20260506014635 62 20 0.0 0.0 0.00 0.01 0.01 93 1009.2
20260506014130 61 19 0.0 0.0 0.00 0.01 0.01 92 1009.3
20260506013629 61 19 0.0 0.0 0.00 0.01 0.01 92 1009.1
20260506013126 61 19 0.0 0.0 0.00 0.01 0.01 92 1009.5
20260506012622 62 20 0.0 0.0 0.00 0.01 0.01 92 1009.3
20260506012118 62 19 0.0 0.0 0.00 0.01 0.01 91 1009.1
20260506011616 62 33 0.0 0.0 0.00 0.01 0.01 91 1009.0
20260506011112 62 33 0.0 0.0 0.00 0.01 0.01 90 1009.2
20260506010611 62 33 0.0 0.0 0.00 0.01 0.01 89 1009.0
20260506005559 63 36 0.0 0.0 0.00 0.01 0.01 88 1008.8
20260506005055 63 36 0.0 0.0 0.00 0.01 0.01 89 1008.8
20260506004553 63 36 0.0 0.0 0.00 0.01 0.01 88 1008.8
20260506004049 63 38 0.0 0.9 0.00 0.01 0.01 87 1008.9
20260506003545 63 340 0.0 0.9 0.00 0.01 0.01 88 1008.9
20260506003042 64 339 0.0 0.9 0.00 0.01 0.01 87 1008.6
20260506002537 64 338 0.0 1.7 0.00 0.01 0.01 86 1008.5
20260506002033 64 11 0.9 0.9 0.00 0.01 0.01 84 1008.3
20260506001530 64 21 0.0 0.0 0.00 0.01 0.01 85 1008.2
20260506001022 64 348 0.0 0.9 0.00 0.01 0.01 85 1008.0
20260506000519 64 92 2.6 2.6 0.00 0.01 0.01 85 1008.0
20260506000017 64 39 0.0 0.0 0.00 0.01 0.01 86 1007.9
20260505235515 64 35 0.9 0.9 0.00 0.01 0.01 86 1008.1
20260505235011 64 34 0.0 0.0 0.00 0.01 0.01 87 1007.8
20260505234508 64 33 0.0 0.0 0.00 0.01 0.01 87 1008.0
20260505234005 64 33 0.0 0.9 0.00 0.01 0.01 87 1007.9
20260505233502 64 32 0.0 0.9 0.00 0.01 0.01 87 1007.8
20260505232959 64 9 0.0 0.0 0.00 0.01 0.01 85 1007.9
20260505232458 65 41 0.9 0.9 0.00 0.01 0.01 85 1007.8
20260505231954 65 26 0.0 0.0 0.00 0.01 0.01 84 1007.8
20260505231452 65 27 0.0 0.0 0.00 0.01 0.01 83 1007.5
20260505230950 65 27 0.0 0.0 0.00 0.01 0.01 83 1007.7
20260505230447 66 32 0.0 0.0 0.00 0.01 0.01 82 1007.6
20260505225943 66 53 1.7 2.6 0.00 0.01 0.01 81 1007.8
20260505225441 65 78 3.5 5.2 0.00 0.01 0.01 82 1007.8
20260505224936 65 34 0.0 0.0 0.00 0.01 0.01 84 1007.7
20260505224433 65 33 0.0 0.0 0.00 0.01 0.01 85 1007.8
20260505223931 65 81 1.7 1.7 0.00 0.01 0.01 83 1007.7
20260505223427 66 36 0.0 0.0 0.00 0.01 0.01 83 1007.9
20260505222924 66 35 0.0 1.7 0.00 0.01 0.01 80 1007.9
20260505222420 66 49 1.7 2.6 0.00 0.01 0.01 82 1007.6
20260505221916 65 26 0.0 0.0 0.00 0.01 0.01 80 1007.9
20260505221414 66 18 0.0 0.9 0.00 0.01 0.01 80 1008.0
20260505220911 65 350 1.7 6.1 0.00 0.01 0.01 80 1007.9
20260505220407 66 354 1.7 3.5 0.05 0.01 0.01 79 1007.7
20260505215905 67 323 3.5 6.1 0.00 0.00 0.00 77 1008.0
20260505215403 68 314 6.1 12.2 0.00 0.00 0.00 72 1007.5
20260505214901 69 332 4.3 7.0 0.00 0.00 0.00 69 1007.4
20260505214358 71 345 12.2 18.2 0.00 0.00 0.00 62 1007.1
20260505213855 74 333 7.0 9.6 0.00 0.00 0.00 54 1006.9
20260505213353 79 338 8.7 13.0 0.00 0.00 0.00 43 1006.4
20260505212849 79 331 1.7 1.7 0.00 0.00 0.00 37 1005.8
20260505212346 79 27 0.0 0.9 0.00 0.00 0.00 40 1005.5
20260505211842 79 1 0.0 0.9 0.00 0.00 0.00 38 1005.3
20260505211339 80 11 0.0 0.9 0.00 0.00 0.00 38 1005.3
20260505210830 80 21 0.0 0.9 0.00 0.00 0.00 37 1005.2
20260505210327 81 50 0.9 1.7 0.00 0.00 0.00 37 1005.1
20260505205824 81 313 0.9 5.2 0.00 0.00 0.00 36 1005.1
20260505205322 81 16 1.7 2.6 0.00 0.00 0.00 37 1005.0